Satellite-Ground Cal/Val Site Overpasses Predictions

Prediction of Satellite NPP Overpassing Cal/Val Site: Antarctic Dome C

Ground Cal/Val Site Location: Latitude: -75.10, Longitude: 123.35; Satellite-Ground Site NADIR distance within 100 km.

Table of predicted overpasses for the next 14.0 days since TLE Epoch: 11/19/2011
Interval Starting Time Ending Time Minimum Distance Time Minimum Distance (km)
1 11/19/2011 14:43:16 11/19/2011 14:43:41 11/19/2011 14:43:28 51.28
2 11/20/2011 07:45:06 11/20/2011 07:45:24 11/20/2011 07:45:15 78.46
3 11/21/2011 07:26:29 11/21/2011 07:26:57 11/21/2011 07:26:43 27.43
4 11/24/2011 14:51:42 11/24/2011 14:52:12 11/24/2011 14:51:57 2.39
5 11/26/2011 07:35:57 11/26/2011 07:36:25 11/26/2011 07:36:11 28.14
6 11/27/2011 07:18:11 11/27/2011 07:18:30 11/27/2011 07:18:20 76.62
7 11/29/2011 15:03:11 11/29/2011 15:03:33 11/29/2011 15:03:22 65.69
8 11/30/2011 14:45:39 11/30/2011 14:46:06 11/30/2011 14:45:53 36.25
9 12/01/2011 07:48:32 12/01/2011 07:48:37 12/01/2011 07:48:34 98.07


NCC Satellite Cal/Val Overpasses Prediction Service
